Location: Six Mile Lake
(44.9000°N, 79.7170°W)
Time: 05:09:28
(UTC-04:00)

UKube-1 - Pass Details

Date: 06 July 2022
Orbit: 608 x 615 km, 98.4° (Epoch: 09 August)

Event Time Altitude Azimuth Distance (km) Brightness Sun altitude
Rises 23:58:58 0° 6° (N) 2,892 ? -19.7°
Reaches altitude 10° 00:01:15 10° 359° (N) 1,981 ? -19.8°
Maximum altitude 00:05:15 39° 291° (WNW) 920 ? -20.1°
Enters shadow 00:07:56 19° 231° (SW) 1,488 ? -20.2°
